Syracuse, NY

10:13 PM EST on February 20, 2017 (GMT -0500)
Syracuse Hancock International

Weather History for KSYR - September, 2014

Change the Weather History Date:

Thursday, September 4, 2014

  Actual Average Record
Temperature  
Mean Temperature 73 °F 66 °F  
Max Temperature 86 °F 77 °F 97 °F (1953)
Min Temperature 59 °F 56 °F 36 °F (1946)
Degree Days  
Heating Degree Days 0 2  
Month to date heating degree days 0 7  
Since 1 July heating degree days 11 33  
Cooling Degree Days 8 3  
Month to date cooling degree days 37 13  
Year to date cooling degree days 596 526  
Growing Degree Days 22 (Base 50)    
Moisture  
Dew Point 61 °F    
Average Humidity 68    
Maximum Humidity 90    
Minimum Humidity 45    
Precipitation  
Precipitation 0.00 in 0.11 in 2.07 in (1966)
Month to date precipitation 0.52 0.47  
Year to date precipitation 29.56 25.06  
Snow  
Snow 0.00 in 0.00 in 0.00 in (2002)
Month to date snowfall 0.0 0.0  
Since 1 July snowfall 0.0 0.0  
Since 1 September snowfall 0.0 0.0  
Snow Depth 0.00 in    
Sea Level Pressure  
Sea Level Pressure 30.08 in    
Wind  
Wind Speed 5 mph (SSE)    
Max Wind Speed 14 mph    
Max Gust Speed 20 mph    
Visibility 10 miles    
Events      
T = Trace of Precipitation, MM = Missing Value Source: NWS Daily Summary

Daily Weather History Graph

Daily Weather History Graph

Search for Another Location

Airport or City:

Trip Planner

Search our weather history database for the weather conditions in past years. The results will help you decide how hot, cold, wet, or windy it might be!

Date:

Astronomy

Sep. 04, 2014 Rise Set
Actual Time 6:32 AM EDT 7:34 PM EDT
Civil Twilight 6:02 AM EDT 8:03 PM EDT
Nautical Twilight 5:28 AM EDT 8:37 PM EDT
Astronomical Twilight 4:51 AM EDT 9:13 PM EDT
Moon 4:14 PM EDT (9/4) 1:15 AM EDT (9/4)
Length of Visible Light 14h 00m
Length of Day
13h 02m
Waxing Gibbous, 74% of the Moon is Illuminated
Sep 4
Waxing Gibbous
Sep 8
Full
Sep 15
Last Quarter
Sep 24
New
Oct 1
First Quarter

Hourly Weather History & Observations

Time (EDT) Temp. Heat Index Dew Point Humidity Pressure Visibility Wind Dir Wind Speed Gust Speed Precip Events Conditions
12:54 AM 63.0 °F - 57.9 °F 84% 30.12 in 10.0 mi East 4.6 mph - N/A   Partly Cloudy
1:54 AM 62.1 °F - 57.9 °F 86% 30.10 in 10.0 mi East 4.6 mph - N/A   Partly Cloudy
2:54 AM 61.0 °F - 57.0 °F 87% 30.09 in 10.0 mi East 5.8 mph - N/A   Clear
3:54 AM 59.0 °F - 55.9 °F 90% 30.09 in 10.0 mi Calm Calm - N/A   Partly Cloudy
4:54 AM 60.1 °F - 57.0 °F 90% 30.09 in 10.0 mi East 4.6 mph - N/A   Partly Cloudy
5:54 AM 60.1 °F - 57.0 °F 90% 30.09 in 10.0 mi East 5.8 mph - N/A   Scattered Clouds
6:54 AM 60.1 °F - 57.0 °F 90% 30.11 in 10.0 mi East 4.6 mph - N/A   Scattered Clouds
7:54 AM 63.0 °F - 59.0 °F 87% 30.12 in 10.0 mi East 3.5 mph - N/A   Scattered Clouds
8:54 AM 68.0 °F - 61.0 °F 78% 30.12 in 10.0 mi ESE 5.8 mph - N/A   Scattered Clouds
9:54 AM 75.0 °F - 64.0 °F 69% 30.12 in 10.0 mi ESE 4.6 mph - N/A   Mostly Cloudy
10:54 AM 80.1 °F 81.5 °F 63.0 °F 56% 30.10 in 10.0 mi Calm Calm - N/A   Overcast
11:54 AM 81.0 °F 82.2 °F 63.0 °F 54% 30.10 in 10.0 mi West 8.1 mph - N/A   Overcast
12:54 PM 82.0 °F 83.4 °F 64.0 °F 54% 30.09 in 10.0 mi SW 9.2 mph - N/A   Mostly Cloudy
1:54 PM 82.0 °F 83.8 °F 64.9 °F 56% 30.09 in 10.0 mi South 6.9 mph - N/A   Overcast
2:54 PM 82.9 °F 84.6 °F 64.9 °F 54% 30.07 in 10.0 mi SW 8.1 mph - N/A   Scattered Clouds
3:54 PM 84.9 °F 85.9 °F 63.0 °F 48% 30.05 in 10.0 mi SW 6.9 mph - N/A   Mostly Cloudy
4:54 PM 86.0 °F 86.8 °F 63.0 °F 46% 30.06 in 10.0 mi WSW 10.4 mph - N/A   Mostly Cloudy
5:54 PM 84.0 °F 84.5 °F 62.1 °F 47% 30.05 in 10.0 mi SSW 6.9 mph - N/A   Scattered Clouds
6:54 PM 82.0 °F 83.0 °F 62.1 °F 51% 30.05 in 10.0 mi SSW 5.8 mph - N/A   Partly Cloudy
7:54 PM 79.0 °F - 63.0 °F 58% 30.05 in 10.0 mi Calm Calm - N/A   Partly Cloudy
8:54 PM 73.9 °F - 64.9 °F 73% 30.04 in 10.0 mi SE 4.6 mph - N/A   Partly Cloudy
9:54 PM 73.0 °F - 64.9 °F 76% 30.04 in 10.0 mi SE 4.6 mph - N/A   Partly Cloudy
10:54 PM 75.0 °F - 64.0 °F 69% 30.04 in 10.0 mi South 6.9 mph - N/A   Partly Cloudy
11:54 PM 73.9 °F - 64.9 °F 73% 30.03 in 10.0 mi SE 4.6 mph - N/A   Scattered Clouds